[[{"header":{"parameterUnit":"m.s-1","parameterCategory":1,"la1":30.2991,"la2":30.254,"lo1":-89.0895,"lo2":-89.0444,"dy":0.0017,"dx":0.0017,"nx":28,"ny":28,"refTime":"2024-05-13T09:00:00:Z","depth":0,"parameterNumber":2,"parameterNumberName":"U-component_of_WINDS"},"data":[0,0,0,0,0,0,0,0,0,0,0,0,0,0,0,0,0,0,0,0,0,0,0,0,0,0,0,0,0,0,0,0,0,0,0,0,0,0,0,0,0,0,0,0,0,0,0,0,0,0,0,0,0,0,0,0,0,0,-8.2427,-8.2421,0,-8.1811,-8.1804,-8.1797,-8.1428,-8.1426,-8.1425,-8.1423,-8.0745,-8.0729,-8.0713,0,0,0,0,0,0,0,0,0,0,0,0,0,-8.3235,-8.3223,-8.2428,-8.242,-8.2413,-8.1812,-8.1804,-8.1795,-8.1428,-8.1426,-8.1425,-8.1423,-8.0751,-8.0731,-8.0711,0,0,0,0,0,0,0,0,0,0,0,0,0,-8.2778,-8.3219,-8.2429,-8.2158,-8.2128,-8.1814,-8.1803,-8.1793,-8.1429,-8.1426,-8.1424,-8.1422,-8.0757,-8.0733,-8.0709,-8.0602,0,0,-8.0633,-8.0622,0,0,0,0,0,0,0,0,-8.2804,-8.2748,-8.2206,-8.2176,-8.2142,-8.1695,-8.1839,-8.1392,-8.1429,-8.1693,-8.1423,-8.1421,-8.106,-8.101,-8.0898,-8.057,-8.0541,-8.063,-8.0615,-8.0605,-8.0598,0,0,0,0,0,0,0,-8.2836,-8.2772,-8.2182,-8.2198,-8.2159,-8.205,-8.1983,-8.1753,-8.1395,-8.167,-8.1642,-8.1576,-8.1042,-8.0923,-8.0879,-8.0531,-8.0631,-8.0609,-8.0594,-8.0584,-8.0066,-8.0067,0,0,0,0,0,0,-8.2918,-8.2802,-8.2202,-8.2164,-8.2476,-8.2038,-8.1962,-8.184,-8.1397,-8.1329,-8.1579,-8.1561,-8.0967,-8.0909,-8.0854,-8.0691,-8.0605,-8.0581,-8.0567,-8.0065,-8.0066,-8.0067,0,0,0,0,0,0,-8.2937,-8.2868,-8.2226,-8.2475,-8.2385,-8.2027,-8.1892,-8.1829,-8.1711,-8.133,-8.1259,-8.1527,-8.0963,-8.0889,-8.0667,-8.0663,-8.057,-8.0548,-8.0063,-8.0065,-8.0067,-8.0373,0,0,0,0,0,0,-8.2962,-8.2878,-8.2847,-8.2478,-8.2374,-8.2068,-8.1892,-8.1819,-8.1674,-8.1646,-8.1262,-8.1195,-8.0955,-8.0706,-8.0643,-8.0627,-8.0528,-8.0062,-8.0064,-8.0066,-8.0361,-8.0385,-8.0405,0,0,0,0,0,-8.2992,-8.295,-8.2847,-8.2777,-8.233,-8.2069,-8.2007,-8.1746,-8.1677,-8.1632,-8.1385,-8.1208,-8.0675,-8.0687,-8.0612,-8.0589,-8.0061,-8.0063,-8.0066,-8.0351,-8.038,-8.0404,0,0,0,0,0,0,-8.3314,-8.2897,-8.2778,-8.2619,-8.2384,-8.2008,-8.1947,-8.1786,-8.1553,-8.1534,-8.1203,-8.1119,-8.0926,-8.0733,-8.0755,-8.0453,-8.0346,-8.0334,-8.0589,-8.0613,-8.0634,-8.0682,-8.0507,0,0,0,0,0,-8.337,-8.3209,-8.2845,-8.2738,-8.2628,-8.2309,-8.2184,-8.2004,-8.1739,-8.1633,-8.137,-8.1107,-8.0877,-8.0734,-8.0503,-8.033,-8.0232,-8.0275,-8.0297,-8.0317,-8.0309,-8.0189,-8.02,-8.0076,-8.0076,-8.0076,0,0,-8.3476,-8.3228,-8.3144,-8.2797,-8.2593,-8.2416,-8.2227,-8.205,-8.191,-8.16,-8.1379,-8.1175,-8.0856,-8.0658,-8.0555,-8.049,-8.0321,-8.032,-8.034,-8.0319,-8.0193,-8.0205,-8.0216,-8.0078,-8.0077,-8.0077,0,0,-8.3582,-8.3384,-8.327,-8.3071,-8.2769,-8.2555,-8.2528,-8.2174,-8.2031,-8.1806,-8.1567,-8.1385,-8.1003,-8.0784,-8.0622,-8.0634,-8.0456,-8.0566,-8.0679,-8.0566,-8.0576,-8.0582,-8.0577,-8.058,-8.056,-8.056,-8.0561,0,-8.3749,-8.3492,-8.3227,-8.3065,-8.2912,-8.2637,-8.2507,-8.2321,-8.1953,-8.1845,-8.1781,-8.129,-8.1056,-8.0796,-8.08,-8.068,-8.0624,-8.0609,-8.0599,-8.0603,-8.0604,-8.0595,-8.0595,-8.0575,-8.0574,-8.0572,-8.0571,0,-8.3707,-8.353,-8.347,-8.3138,-8.2976,-8.2831,-8.2528,-8.2393,-8.2222,-8.201,-8.1772,-8.1483,-8.1185,-8.1108,-8.0936,-8.0818,-8.0786,-8.0666,-8.0549,-8.0637,-8.0621,-8.0617,-8.0597,-8.0591,-8.0587,-8.0583,0,0,-8.4002,-8.3524,-8.3506,-8.3347,-8.2989,-8.2837,-8.267,-8.2393,-8.2278,-8.2029,-8.187,-8.1549,-8.1433,-8.1249,-8.1046,-8.0949,-8.0963,-8.0835,-8.0822,-8.0863,-8.0801,-8.0893,-8.0895,-8.0845,-8.0843,-8.0841,-8.0825,0,-8.4051,-8.3761,-8.3512,-8.3303,-8.3127,-8.2857,-8.2708,-8.2463,-8.2257,-8.2061,-8.1824,-8.1601,-8.1469,-8.1355,-8.1246,-8.0987,-8.0945,-8.0984,-8.0676,-8.0669,-8.0765,-8.0888,-8.0986,-8.0986,-8.0818,-8.0817,-8.0817,0,-8.4072,-8.3848,-8.3628,-8.328,-8.3195,-8.3071,-8.2789,-8.2613,-8.2319,-8.2174,-8.1969,-8.1758,-8.1548,-8.1455,-8.1152,-8.1184,-8.104,-8.0892,-8.0884,-8.0842,-8.0748,-8.0843,-8.0981,-8.098,-8.0806,-8.0807,-8.0808,0,-8.4302,-8.3943,-8.3762,-8.3634,-8.3226,-8.3142,-8.2964,-8.2671,-8.2516,-8.2263,-8.2155,-8.1877,-8.1722,-8.1501,-8.1213,-8.1174,-8.0935,-8.082,-8.0794,-8.0801,-8.0755,-8.0761,-8.0867,-8.0672,-8.0672,-8.0672,-8.0672,0,-8.4381,-8.4254,-8.386,-8.3748,-8.3591,-8.3297,-8.3143,-8.2939,-8.2679,-8.2508,-8.225,-8.2091,-8.1724,-8.1513,-8.1283,-8.106,-8.0992,-8.0856,-8.0796,-8.0878,-8.0895,-8.0777,-8.0767,-8.0671,-8.0672,-8.0672,-8.0672,0,-8.4612,-8.4346,-8.4129,-8.3762,-8.3665,-8.3565,-8.3239,-8.3109,-8.2888,-8.2674,-8.2605,-8.225,-8.1989,-8.1681,-8.1315,-8.1159,-8.0952,-8.0866,-8.1058,-8.1022,-8.1011,-8.1015,-8.1041,-8.1024,-8.085,-8.0852,-8.0854,0,-8.468,-8.4577,-8.4201,-8.4077,-8.3911,-8.3712,-8.3554,-8.3254,-8.3097,-8.2752,-8.2659,-8.2382,-8.2145,-8.1736,-8.1433,-8.1147,-8.1047,-8.1076,-8.1001,-8.1084,-8.1037,-8.1047,-8.1028,-8.1095,-8.1099,-8.1102,-8.1104,0,-8.4824,-8.4696,-8.449,-8.4234,-8.4057,-8.3836,-8.3602,-8.3509,-8.3157,-8.299,-8.2729,-8.2546,-8.2176,-8.1897,-8.1573,-8.1365,-8.117,-8.1131,-8.1107,-8.1188,-8.1302,-8.1232,-8.1107,-8.113,-8.1128,-8.1126,-8.1124,-8.1123,-8.4969,-8.4863,-8.4582,-8.4355,-8.415,-8.3936,-8.3796,-8.3559,-8.3341,-8.3029,-8.2858,-8.2597,-8.2287,-8.1835,-8.1634,-8.1411,-8.1343,-8.1313,-8.1304,-8.13,-8.1321,-8.1343,-8.135,-8.1349,-8.1348,-8.1347,-8.1346,0,-8.5095,-8.4901,-8.4697,-8.4384,-8.4201,-8.405,-8.3779,-8.3631,-8.3411,-8.3148,-8.2922,-8.2612,-8.2338,-8.2014,-8.1713,-8.1595,-8.1496,-8.1525,-8.1528,-8.1481,-8.1402,-8.145,-8.161,-8.161,-8.161,-8.161,-8.161,-8.161,-8.514,-8.4949,-8.4786,-8.4482,-8.428,-8.4037,-8.3895,-8.3688,-8.3477,-8.315,-8.2927,-8.2723,-8.2427,-8.2102,-8.1837,-8.1745,-8.1642,-8.1697,-8.1579,-8.151,-8.1488,-8.1466,-8.1509,-8.1679,-8.168,-8.1674,-8.1675,-8.1675]},{"header":{"parameterUnit":"m.s-1","parameterCategory":1,"la1":30.2991,"la2":30.254,"lo1":-89.0895,"lo2":-89.0444,"dy":0.0017,"dx":0.0017,"nx":28,"ny":28,"refTime":"2024-05-13T09:00:00:Z","depth":0,"parameterNumber":3,"parameterNumberName":"V-component_of_WINDS"},"data":[0,0,0,0,0,0,0,0,0,0,0,0,0,0,0,0,0,0,0,0,0,0,0,0,0,0,0,0,0,0,0,0,0,0,0,0,0,0,0,0,0,0,0,0,0,0,0,0,0,0,0,0,0,0,0,0,0,0,-6.1795,-6.18,0,-6.2299,-6.2304,-6.231,-6.2311,-6.2304,-6.2297,-6.2291,-6.2827,-6.2847,-6.2867,0,0,0,0,0,0,0,0,0,0,0,0,0,-6.0856,-6.0873,-6.1794,-6.18,-6.1807,-6.2298,-6.2305,-6.2312,-6.2312,-6.2304,-6.2296,-6.2288,-6.282,-6.2844,-6.2869,0,0,0,0,0,0,0,0,0,0,0,0,0,-6.1302,-6.0878,-6.1793,-6.1865,-6.1877,-6.2296,-6.2305,-6.2313,-6.2313,-6.2303,-6.2294,-6.2284,-6.2812,-6.2842,-6.2872,-6.3259,0,0,-6.2966,-6.2979,0,0,0,0,0,0,0,0,-6.1277,-6.1337,-6.1849,-6.1861,-6.1875,-6.2231,-6.217,-6.2631,-6.2316,-6.2148,-6.2291,-6.2279,-6.2638,-6.2682,-6.2799,-6.3284,-6.3307,-6.2968,-6.2987,-6.3,-6.3009,0,0,0,0,0,0,0,-6.1246,-6.1315,-6.1994,-6.1856,-6.1872,-6.1881,-6.1933,-6.2258,-6.2443,-6.2162,-6.2163,-6.2222,-6.2643,-6.277,-6.2812,-6.3315,-6.2968,-6.2995,-6.3014,-6.3026,-6.4156,-6.4167,0,0,0,0,0,0,-6.1197,-6.1289,-6.1978,-6.2009,-6.1545,-6.1906,-6.1964,-6.2127,-6.2439,-6.2477,-6.223,-6.222,-6.2722,-6.2776,-6.2831,-6.3313,-6.3,-6.3029,-6.3046,-6.4144,-6.4158,-6.4171,0,0,0,0,0,0,-6.1177,-6.1259,-6.1958,-6.165,-6.174,-6.1932,-6.2115,-6.2142,-6.2268,-6.249,-6.2526,-6.2323,-6.2717,-6.2788,-6.3154,-6.3331,-6.3042,-6.307,-6.413,-6.4149,-6.4165,-6.4273,0,0,0,0,0,0,-6.115,-6.1251,-6.1394,-6.1653,-6.1756,-6.2265,-6.2126,-6.2159,-6.2319,-6.2311,-6.2587,-6.2624,-6.2714,-6.3108,-6.3184,-6.3368,-6.3094,-6.4116,-6.4139,-6.4159,-6.4255,-6.4292,-6.4324,0,0,0,0,0,-6.1116,-6.1406,-6.1401,-6.1484,-6.1937,-6.2275,-6.2335,-6.2427,-6.2332,-6.2483,-6.2627,-6.2615,-6.3298,-6.3146,-6.3231,-6.3427,-6.4105,-6.4132,-6.4157,-6.4239,-6.4285,-6.4324,0,0,0,0,0,0,-6.1167,-6.1441,-6.1438,-6.1818,-6.2023,-6.2274,-6.2465,-6.2471,-6.2712,-6.2695,-6.2806,-6.2869,-6.3236,-6.3368,-6.3193,-6.3824,-6.3691,-6.3736,-6.3724,-6.377,-6.3803,-6.3767,-6.312,0,0,0,0,0,-6.1221,-6.1466,-6.1695,-6.2009,-6.2112,-6.2271,-6.2422,-6.2475,-6.2695,-6.2783,-6.2953,-6.3173,-6.3438,-6.361,-6.3865,-6.4273,-6.434,-6.4451,-6.4485,-6.4513,-6.4552,-6.479,-6.4845,-6.4257,-6.4257,-6.4256,0,0,-6.1339,-6.1519,-6.1667,-6.2024,-6.2189,-6.2449,-6.2344,-6.2621,-6.2818,-6.2827,-6.3184,-6.3318,-6.3571,-6.3962,-6.4143,-6.4083,-6.4729,-6.4546,-6.4566,-6.4592,-6.4822,-6.4878,-6.4927,-6.4275,-6.4272,-6.4269,0,0,-6.1686,-6.1842,-6.2125,-6.2293,-6.2542,-6.2648,-6.2716,-6.2969,-6.3057,-6.3415,-6.343,-6.367,-6.4121,-6.4304,-6.4456,-6.4881,-6.4884,-6.4961,-6.5145,-6.5375,-6.5422,-6.5463,-6.5625,-6.568,-6.4999,-6.4999,-6.4999,0,-6.1802,-6.2186,-6.2271,-6.2552,-6.2713,-6.2729,-6.3023,-6.3184,-6.3507,-6.3623,-6.3549,-6.4122,-6.4292,-6.4732,-6.4836,-6.4955,-6.5046,-6.4932,-6.5406,-6.5449,-6.549,-6.5646,-6.5705,-6.5007,-6.5006,-6.5006,-6.5005,0,-6.2321,-6.2589,-6.2789,-6.3096,-6.3281,-6.3566,-6.3704,-6.3882,-6.3922,-6.4038,-6.441,-6.4616,-6.4918,-6.5025,-6.5067,-6.5476,-6.5432,-6.5381,-6.5251,-6.5553,-6.5702,-6.5761,-6.5019,-6.5016,-6.5014,-6.5012,0,0,-6.2713,-6.3067,-6.314,-6.3284,-6.3564,-6.3777,-6.4069,-6.4359,-6.4514,-6.4739,-6.4993,-6.5378,-6.5336,-6.5508,-6.5572,-6.5773,-6.611,-6.57,-6.5708,-6.5777,-6.6586,-6.6627,-6.6693,-6.6111,-6.6123,-6.6132,-6.6568,0,-6.3096,-6.3605,-6.3695,-6.4145,-6.44,-6.4422,-6.4678,-6.4883,-6.5002,-6.5243,-6.5376,-6.5651,-6.5568,-6.5674,-6.5873,-6.6026,-6.6275,-6.5995,-6.6361,-6.6372,-6.6302,-6.6769,-6.6812,-6.7213,-6.6625,-6.6635,-6.6642,0,-6.3609,-6.3844,-6.4318,-6.4572,-6.4683,-6.4909,-6.5189,-6.5414,-6.5652,-6.5726,-6.5922,-6.5965,-6.628,-6.6132,-6.6575,-6.6382,-6.6538,-6.6637,-6.6655,-6.6698,-6.6529,-6.6834,-6.7342,-6.7405,-6.6732,-6.6725,-6.6719,0,-6.3858,-6.4292,-6.4635,-6.4757,-6.5059,-6.522,-6.5356,-6.5582,-6.5755,-6.6002,-6.6117,-6.6398,-6.6555,-6.6777,-6.69,-6.6779,-6.7339,-6.7198,-6.7418,-6.7416,-6.7539,-6.753,-6.8087,-6.7626,-6.7625,-6.7624,-6.7622,0,-6.4279,-6.4571,-6.4752,-6.4963,-6.5295,-6.5399,-6.5728,-6.5861,-6.6065,-6.6311,-6.6348,-6.658,-6.6724,-6.6981,-6.7079,-6.7438,-6.7506,-6.7582,-6.7607,-6.7583,-6.7575,-6.7691,-6.767,-6.764,-6.7636,-6.7633,-6.763,0,-6.4614,-6.4745,-6.5122,-6.5378,-6.545,-6.5684,-6.5908,-6.6121,-6.6239,-6.6551,-6.6631,-6.6822,-6.7126,-6.7269,-6.7646,-6.7714,-6.8124,-6.8125,-6.8042,-6.8053,-6.8268,-6.8249,-6.8925,-6.9024,-6.8489,-6.8494,-6.8498,0,-6.4876,-6.5101,-6.5382,-6.5547,-6.5685,-6.5949,-6.6126,-6.6241,-6.6425,-6.6718,-6.6898,-6.7202,-6.7452,-6.794,-6.8118,-6.8411,-6.8425,-6.8642,-6.847,-6.8443,-6.8441,-6.8429,-6.8458,-6.8675,-6.868,-6.8684,-6.8688,0,-6.5333,-6.5388,-6.5636,-6.5912,-6.612,-6.6344,-6.6564,-6.6699,-6.6851,-6.7058,-6.7367,-6.7561,-6.7947,-6.8254,-6.856,-6.871,-6.8731,-6.874,-6.8808,-6.8791,-6.8737,-6.8779,-6.8136,-6.8725,-6.8721,-6.8719,-6.8717,-6.8715,-6.5646,-6.5851,-6.6082,-6.6362,-6.6539,-6.6746,-6.696,-6.7107,-6.7364,-6.7684,-6.7738,-6.8071,-6.8316,-6.8727,-6.8889,-6.9158,-6.9109,-6.9205,-6.9231,-6.9255,-6.9272,-6.8687,-6.9213,-6.9212,-6.9211,-6.9211,-6.921,0,-6.6112,-6.6263,-6.6518,-6.6824,-6.7048,-6.7038,-6.7285,-6.7475,-6.7764,-6.7987,-6.8232,-6.8595,-6.8895,-6.9098,-6.9405,-6.9583,-6.9601,-6.9661,-6.9653,-6.969,-6.9293,-6.9207,-6.9642,-6.9641,-6.9641,-6.9641,-6.9641,-6.9641,-6.6381,-6.673,-6.6815,-6.7257,-6.7409,-6.773,-6.7873,-6.8069,-6.8248,-6.8648,-6.8896,-6.9024,-6.9244,-6.9569,-6.9848,-6.9901,-7.0018,-7.008,-7.0134,-6.9761,-6.9716,-6.9673,-6.9594,-7.0102,-7.0103,-7.051,-7.0514,-7.0517]}]]